www.pogodaiklimat.ru

Погода и климат >> Архив погоды >> Австралия >> Adelaide


АРХИВ ПОГОДЫ в Adelaide

Время (UTC), дата Ветер
(напр.,м/с)
 
Видим.   Явления Облачность Т
(С)
Тd
(С)
f
(%)
Тe
(С)
Тes
(С)
Комфортность P
(гПа)
Po
(гПа)
Тmin
(С)
Tmax
(С)
R
(мм)
R24
(мм)
S
(см)
02 13.11 СЗ 5 н/о н/о +32.6 +2.7 15 +30 +30 жарко 1013.2 1012.2
01 13.11 СЗ 5 н/о н/о +33.0 +2.5 15 +30 +30 жарко 1013.7 1012.7
03 13.11 З 5 н/о н/о +31.8 -2.3 11 +30 +30 жарко 1012.5 1011.5
04 13.11 З 5 н/о н/о +32.6 +1.5 14 +30 +30 жарко 1011.8 1010.8
05 13.11 ЮЗ 4 н/о н/о +34.0 -4.7 8 +30 +30 жарко 1010.9 1009.9
06 13.11 ЮЗ 3 н/о н/о +34.8 -4.3 8 +31 +31 жарко 1010.2 1009.2
08 13.11 ЮЗ 3 н/о н/о +32.6 -0.6 12 +29 +29 жарко 1009.5 1008.5
07 13.11 З 6 н/о н/о +34.0 +0.5 12 +31 +31 жарко 1009.9 1008.9
09 13.11 ЮВ 4 н/о н/о +31.8 0.0 13 +29 +29 жарко 1009.7 1008.7
10 13.11 В 6 н/о н/о +30.7 +3.8 18 +28 +28 жарко 1009.8 1008.8
11 13.11 В 4 н/о н/о +30.3 +2.1 16 +28 +28 жарко 1010.2 1009.2
12 13.11 В 7 н/о н/о +30.0 +0.6 15 +27 +27 жарко 1010.1 1009.1
14 13.11 С 4 н/о н/о +25.3 +9.7 37 +26 +26 жарко 1010.2 1009.2
13 13.11 СЗ 2 н/о н/о +25.8 +13.4 46 +28 +28 жарко 1010.3 1009.3
15 13.11 СВ 4 н/о н/о +24.4 +8.0 35 +25 +25 комфорт 1010.0 1009.0
16 13.11 СВ 4 н/о н/о +22.7 +7.3 37 +24 +24 комфорт 1009.8 1008.8
17 13.11 СВ 4 н/о н/о +22.8 +5.8 33 +23 +23 комфорт 1009.4 1008.4
18 13.11 СВ 3 н/о н/о +21.0 +6.9 40 +22 +22 комфорт 1009.2 1008.2
20 13.11 СВ 2 н/о н/о +21.6 +7.2 39 +22 +22 комфорт 1009.4 1008.4
19 13.11 СВ 3 н/о н/о +20.4 +7.1 42 +22 +22 комфорт 1009.2 1008.2
21 13.11 СВ 3 н/о н/о +26.0 +7.0 30 +26 +26 жарко 1009.2 1008.2
22 13.11 СВ 5 н/о н/о +30.1 +5.0 20 +28 +28 жарко 1009.6 1008.6
23 13.11 СВ 6 н/о н/о +33.0 +0.9 13 +30 +30 жарко 1009.4 1008.4
00 14.11 С 7 н/о н/о +33.6 +0.8 12 +30 +30 жарко 1009.4 1008.4
02 14.11 З 4 н/о н/о +26.7 +9.8 35 +27 +27 жарко 1008.7 1007.7
01 14.11 СЗ 7 н/о н/о +32.0 +5.4 19 +30 +30 жарко 1009.2 1008.2
03 14.11 ЮВ 3 н/о н/о +30.1 +6.0 22 +29 +29 жарко 1008.1 1007.1
04 14.11 Ю 2 н/о н/о +33.5 +5.6 18 +31 +31 жарко 1006.9 1005.9
05 14.11 СЗ 3 н/о н/о +32.4 +3.9 17 +30 +30 жарко 1006.2 1005.2
06 14.11 СЗ 3 н/о н/о +31.1 +5.4 20 +29 +29 жарко 1005.8 1004.8
08 14.11 ЮЗ 7 н/о н/о +21.5 +15.8 70 +25 +25 комфорт 1008.6 1007.6
07 14.11 ЮЗ 8 н/о н/о +22.5 +14.1 59 +26 +26 жарко 1007.7 1006.7
09 14.11 ЮЗ 4 н/о н/о +21.1 +16.1 73 +24 +24 комфорт 1009.5 1008.5
10 14.11 штиль 0 н/о н/о +20.8 +16.5 76 +24 +24 комфорт 1011.5 1010.5
11 14.11 штиль 0 н/о н/о +20.8 +17.2 80 +24 +24 комфорт 1011.8 1010.8
12 14.11 В 2 н/о н/о +20.6 +17.5 82 +25 +25 комфорт 1011.5 1010.5
14 14.11 СЗ 4 н/о н/о +21.3 +16.3 73 +25 +25 комфорт 1010.7 1009.7
13 14.11 СВ 2 н/о н/о +20.8 +16.7 77 +25 +25 комфорт 1010.9 1009.9
15 14.11 С 4 н/о н/о +20.9 +16.3 75 +25 +25 комфорт 1010.4 1009.4
16 14.11 СЗ 3 н/о н/о +20.4 +17.1 81 +24 +24 комфорт 1009.9 1008.9
17 14.11 СЗ 3 н/о н/о +20.1 +17.1 83 +23 +23 комфорт 1010.1 1009.1
18 14.11 СЗ 3 н/о н/о +20.0 +17.7 87 +23 +23 комфорт 1010.4 1009.4
20 14.11 ЮЗ 4 н/о н/о +18.5 +17.8 96 +19 +19 тепло 1011.0 1010.0
19 14.11 З 4 н/о н/о +19.4 +17.6 89 +21 +21 комфорт 1010.7 1009.7
21 14.11 ЮЗ 5 н/о н/о +18.2 +17.4 95 +18 +18 по сезону 1011.6 1010.6
22 14.11 ЮЗ 3 н/о н/о +17.9 +17.1 95 +18 +18 прохладно 1011.4 1010.4
23 14.11 ЮЗ 4 н/о н/о +18.2 +17.0 93 +18 +18 прохладно 1011.5 1010.5
00 15.11 ЮЗ 6 н/о н/о +18.0 +17.0 94 +17 +17 прохладно 1011.7 1010.7
02 15.11 Ю 9 н/о н/о +17.3 +14.9 86 +16 +16 очень
холодно
1013.0 1012.0
01 15.11 ЮЗ 9 н/о н/о +17.1 +16.1 94 +16 +16 холодно 1012.6 1011.6
03 15.11 Ю 6 н/о н/о +19.0 +16.0 83 +20 +20 по сезону 1012.8 1011.8
04 15.11 ЮЗ 10 н/о н/о +16.6 +14.7 89 +15 +15 очень
холодно
1013.1 1012.1
05 15.11 Ю 10 н/о н/о +17.3 +14.0 81 +16 +16 очень
холодно
1013.6 1012.6
06 15.11 Ю 9 н/о н/о +16.8 +13.4 80 +15 +15 очень
холодно
1014.2 1013.2
08 15.11 Ю 8 н/о н/о +16.1 +12.7 80 +14 +14 холодно 1014.9 1013.9
07 15.11 Ю 9 н/о н/о +16.8 +12.6 76 +15 +15 холодно 1014.3 1013.3
09 15.11 ЮЗ 8 н/о н/о +15.7 +12.4 81 +14 +14 холодно 1015.8 1014.8
10 15.11 Ю 7 н/о н/о +15.7 +11.6 77 +14 +14 по сезону 1016.3 1015.3
11 15.11 Ю 6 н/о н/о +15.2 +12.3 83 +14 +14 по сезону 1016.7 1015.7
12 15.11 Ю 7 н/о н/о +14.9 +12.1 83 +13 +13 прохладно 1017.1 1016.1
14 15.11 Ю 7 н/о н/о +14.8 +10.4 75 +13 +13 по сезону 1017.2 1016.2
13 15.11 Ю 8 н/о н/о +15.0 +10.8 76 +13 +13 по сезону 1017.4 1016.4
15 15.11 Ю 6 н/о н/о +14.4 +10.6 78 +13 +13 по сезону 1016.5 1015.5
16 15.11 Ю 7 н/о н/о +14.2 +8.9 70 +12 +12 по сезону 1016.0 1015.0
17 15.11 Ю 6 н/о н/о +14.1 +7.8 66 +12 +12 по сезону 1016.0 1015.0
18 15.11 Ю 6 н/о н/о +14.4 +7.7 64 +13 +13 по сезону 1015.9 1014.9
20 15.11 Ю 4 н/о н/о +13.8 +9.3 74 +12 +12 прохладно 1017.3 1016.3
19 15.11 Ю 4 н/о н/о +14.4 +9.3 71 +13 +13 прохладно 1016.4 1015.4
21 15.11 Ю 5 н/о н/о +13.8 +10.1 78 +12 +12 холодно 1017.6 1016.6
22 15.11 Ю 6 н/о н/о +15.5 +9.3 67 +14 +14 очень
холодно
1017.8 1016.8
23 15.11 ЮЗ 6 н/о н/о +15.5 +10.6 73 +14 +14 холодно 1017.8 1016.8
00 16.11 ЮЗ 8 н/о н/о +14.6 +10.6 77 +12 +12 очень
холодно
1017.8 1016.8
02 16.11 ЮЗ 8 н/о н/о +15.8 +10.7 72 +14 +14 очень
холодно
1017.6 1016.6
01 16.11 ЮЗ 8 н/о н/о +15.9 +10.8 72 +14 +14 очень
холодно
1017.7 1016.7
03 16.11 ЮЗ 9 н/о н/о +17.0 +10.6 66 +16 +16 холодно 1017.4 1016.4
04 16.11 ЮЗ 9 н/о н/о +17.9 +10.2 61 +17 +17 очень
холодно
1016.9 1015.9
05 16.11 ЮЗ 10 н/о н/о +17.4 +10.5 64 +16 +16 очень
холодно
1016.2 1015.2
06 16.11 ЮЗ 9 н/о н/о +17.2 +9.8 62 +16 +16 холодно 1015.8 1014.8
08 16.11 ЮЗ 9 н/о н/о +15.7 +7.9 60 +14 +14 холодно 1016.0 1015.0
07 16.11 ЮЗ 10 н/о н/о +17.0 +7.9 55 +15 +15 холодно 1015.8 1014.8
09 16.11 Ю 6 н/о н/о +15.5 +6.7 56 +14 +14 холодно 1016.4 1015.4
10 16.11 Ю 5 н/о н/о +14.8 +7.0 60 +13 +13 прохладно 1017.0 1016.0
11 16.11 Ю 5 н/о н/о +14.9 +7.2 60 +14 +14 прохладно 1017.1 1016.1
12 16.11 ЮЗ 5 н/о н/о +14.7 +7.6 62 +13 +13 прохладно 1017.1 1016.1
14 16.11 ЮЗ 6 н/о н/о +13.9 +10.4 79 +12 +12 по сезону 1016.3 1015.3
13 16.11 Ю 4 н/о н/о +13.9 +10.0 77 +12 +12 прохладно 1016.8 1015.8
15 16.11 ЮЗ 7 н/о н/о +13.8 +10.5 80 +11 +11 прохладно 1015.2 1014.2
16 16.11 ЮЗ 7 н/о н/о +14.2 +10.6 79 +12 +12 по сезону 1014.4 1013.4
17 16.11 ЮЗ 8 н/о н/о +14.2 +10.6 79 +12 +12 по сезону 1013.9 1012.9
18 16.11 ЮЗ 8 н/о н/о +14.5 +11.5 82 +12 +12 по сезону 1013.5 1012.5
20 16.11 ЮЗ 8 н/о н/о +14.4 +11.8 84 +12 +12 прохладно 1014.3 1013.3
19 16.11 ЮЗ 7 н/о н/о +14.6 +11.0 79 +13 +13 прохладно 1013.8 1012.8
21 16.11 ЮЗ 8 н/о н/о +14.9 +12.7 87 +13 +13 прохладно 1014.3 1013.3
22 16.11 З 8 н/о н/о +14.7 +13.3 91 +12 +12 очень
холодно
1014.8 1013.8
23 16.11 З 7 н/о н/о +14.8 +13.4 91 +13 +13 очень
холодно
1015.1 1014.1
00 17.11 З 7 н/о н/о +14.7 +13.6 93 +13 +13 очень
холодно
1015.2 1014.2
02 17.11 З 7 н/о н/о +15.5 +13.9 90 +14 +14 очень
холодно
1014.9 1013.9
01 17.11 З 7 н/о н/о +15.1 +13.9 93 +13 +13 очень
холодно
1015.1 1014.1
03 17.11 З 7 н/о н/о +15.8 +13.8 88 +14 +14 очень
холодно
1014.6 1013.6
04 17.11 ЮЗ 9 н/о н/о +16.3 +13.8 85 +15 +15 очень
холодно
1014.5 1013.5
05 17.11 ЮЗ 10 н/о н/о +16.5 +14.2 86 +15 +15 очень
холодно
1014.1 1013.1
06 17.11 ЮЗ 9 н/о н/о +16.5 +14.6 89 +15 +15 очень
холодно
1013.9 1012.9
08 17.11 ЮЗ 8 н/о н/о +17.3 +14.5 84 +16 +16 прохладно 1013.7 1012.7
07 17.11 ЮЗ 8 н/о н/о +17.7 +14.4 81 +17 +17 прохладно 1013.3 1012.3
09 17.11 ЮЗ 7 н/о н/о +16.9 +14.6 86 +16 +16 прохладно 1014.4 1013.4
10 17.11 ЮЗ 6 н/о н/о +16.7 +14.2 85 +16 +16 по сезону 1014.7 1013.7
11 17.11 ЮЗ 5 н/о н/о +16.8 +14.4 86 +16 +16 по сезону 1014.8 1013.8
12 17.11 Ю 3 н/о н/о +16.8 +13.4 80 +17 +17 по сезону 1015.4 1014.4
14 17.11 Ю 4 н/о н/о +16.4 +12.4 77 +16 +16 тепло 1015.2 1014.2
13 17.11 Ю 3 н/о н/о +16.7 +12.7 77 +17 +17 тепло 1015.3 1014.3
15 17.11 Ю 4 н/о н/о +16.3 +12.5 78 +16 +16 по сезону 1014.7 1013.7
16 17.11 Ю 3 н/о н/о +15.8 +12.5 81 +15 +15 тепло 1014.3 1013.3
17 17.11 Ю 3 н/о н/о +15.0 +12.2 83 +14 +14 по сезону 1013.9 1012.9
18 17.11 ЮЗ 4 н/о н/о +15.3 +12.6 84 +14 +14 по сезону 1014.2 1013.2
20 17.11 Ю 3 н/о н/о +15.7 +12.4 81 +15 +15 по сезону 1015.1 1014.1
19 17.11 Ю 4 н/о н/о +15.4 +12.5 83 +15 +15 по сезону 1014.5 1013.5
21 17.11 ЮВ 2 н/о н/о +15.9 +12.8 82 +16 +16 по сезону 1015.6 1014.6
22 17.11 ЮВ 3 н/о н/о +16.6 +12.6 77 +17 +17 холодно 1015.8 1014.8
23 17.11 В 1 н/о н/о +17.8 +12.6 72 +19 +19 по сезону 1016.0 1015.0
00 18.11 ЮЗ 4 н/о н/о +17.5 +13.0 75 +17 +17 прохладно 1016.6 1015.6
02 18.11 ЮЗ 6 н/о н/о +18.7 +13.2 70 +19 +19 прохладно 1016.2 1015.2
01 18.11 ЮЗ 5 н/о н/о +17.9 +13.1 73 +18 +18 холодно 1016.4 1015.4
03 18.11 ЮЗ 7 н/о н/о +18.8 +13.7 72 +19 +19 прохладно 1015.8 1014.8
04 18.11 ЮЗ 7 н/о н/о +19.1 +13.5 70 +20 +20 холодно 1015.3 1014.3
05 18.11 ЮЗ 8 н/о н/о +19.7 +14.0 70 +21 +21 комфорт 1014.9 1013.9
06 18.11 ЮЗ 8 н/о н/о +20.3 +14.3 68 +22 +22 комфорт 1014.4 1013.4
08 18.11 ЮЗ 6 н/о н/о +19.6 +15.0 75 +21 +21 комфорт 1013.8 1012.8
07 18.11 ЮЗ 7 н/о н/о +19.8 +14.5 71 +21 +21 комфорт 1013.9 1012.9
09 18.11 ЮВ 5 н/о н/о +21.9 +13.4 58 +25 +25 комфорт 1014.1 1013.1
10 18.11 ЮВ 5 н/о н/о +19.7 +13.0 65 +21 +21 комфорт 1014.4 1013.4
11 18.11 В 4 н/о н/о +18.3 +12.8 70 +19 +19 тепло 1015.0 1014.0
12 18.11 В 6 н/о н/о +17.1 +12.8 76 +16 +16 по сезону 1015.3 1014.3
14 18.11 В 5 н/о н/о +16.6 +12.6 77 +16 +16 тепло 1014.7 1013.7
13 18.11 В 6 н/о н/о +16.9 +12.8 77 +16 +16 по сезону 1015.4 1014.4
15 18.11 В 4 н/о н/о +16.5 +13.1 80 +16 +16 по сезону 1014.3 1013.3
16 18.11 В 4 н/о н/о +16.5 +13.1 80 +16 +16 тепло 1013.9 1012.9
17 18.11 ЮЗ 3 н/о н/о +15.5 +13.5 88 +15 +15 тепло 1013.9 1012.9
18 18.11 штиль 0 н/о н/о +14.7 +12.9 89 +14 +14 по сезону 1013.9 1012.9
20 18.11 штиль 0 н/о н/о +14.4 +12.6 89 +14 +14 прохладно 1014.0 1013.0
19 18.11 штиль 0 н/о н/о +14.0 +12.7 92 +14 +14 прохладно 1013.9 1012.9
21 18.11 штиль 0 н/о н/о +18.6 +14.3 76 +19 +19 тепло 1014.5 1013.5
22 18.11 С 3 н/о н/о +21.4 +14.6 65 +24 +24 комфорт 1014.9 1013.9
23 18.11 СВ 6 н/о н/о +25.9 +12.4 43 +27 +27 жарко 1015.1 1014.1
00 19.11 ЮЗ 5 н/о н/о +22.8 +14.1 58 +26 +26 жарко 1015.4 1014.4
02 19.11 З 6 н/о н/о +24.8 +14.1 51 +27 +27 жарко 1015.0 1014.0
01 19.11 З 6 н/о н/о +22.8 +13.3 55 +26 +26 жарко 1015.3 1014.3
03 19.11 ЮЗ 6 н/о н/о +24.1 +13.4 51 +26 +26 жарко 1014.6 1013.6
04 19.11 Ю 4 н/о н/о +26.4 +13.7 46 +29 +29 жарко 1013.7 1012.7
05 19.11 В 7 н/о н/о +28.3 +13.9 41 +30 +30 жарко 1012.8 1011.8
06 19.11 С 6 н/о н/о +31.2 +7.6 23 +30 +30 жарко 1012.0 1011.0
08 19.11 В 6 н/о н/о +30.9 +8.0 24 +30 +30 жарко 1011.9 1010.9
07 19.11 В 6 н/о н/о +31.2 +7.6 23 +30 +30 жарко 1012.0 1011.0
09 19.11 В 6 н/о н/о +29.4 +8.8 28 +29 +29 жарко 1012.4 1011.4
10 19.11 В 6 н/о н/о +26.5 +12.3 41 +28 +28 жарко 1012.7 1011.7
11 19.11 В 4 н/о н/о +25.5 +11.8 42 +27 +27 жарко 1012.9 1011.9
12 19.11 В 6 н/о н/о +26.0 +9.9 36 +27 +27 жарко 1013.2 1012.2
14 19.11 СВ 6 н/о н/о +25.9 +9.5 36 +27 +27 жарко 1013.5 1012.5
13 19.11 В 6 н/о н/о +26.0 +9.4 35 +26 +26 жарко 1013.3 1012.3
15 19.11 В 5 н/о н/о +25.7 +9.2 35 +26 +26 жарко 1013.3 1012.3
16 19.11 СВ 8 н/о н/о +26.6 +8.5 32 +27 +27 жарко 1013.5 1012.5
17 19.11 СВ 7 н/о н/о +25.9 +9.8 36 +27 +27 жарко 1013.8 1012.8
18 19.11 СВ 7 н/о н/о +25.4 +10.3 39 +26 +26 жарко 1013.8 1012.8
20 19.11 СВ 7 н/о н/о +25.2 +10.7 40 +26 +26 жарко 1014.8 1013.8
19 19.11 СВ 7 н/о н/о +25.0 +10.6 40 +26 +26 жарко 1014.3 1013.3
21 19.11 СВ 7 н/о н/о +27.0 +11.1 37 +28 +28 жарко 1015.1 1014.1
22 19.11 СВ 7 н/о н/о +27.3 +11.6 38 +28 +28 жарко 1015.5 1014.5
23 19.11 СВ 8 н/о н/о +27.9 +11.5 36 +29 +29 жарко 1015.5 1014.5
00 20.11 СВ 7 н/о н/о +30.3 +12.2 33 +31 +31 жарко 1015.3 1014.3

 

Местоположение метеостанции Adelaide (Южная Австралия, Австралия): широта -34.95 долгота 138.53 высота над уровнем моря 8 м.

В архиве по умолчанию представлена погода в Adelaide за последнюю неделю. Архивные данные за месяц целиком и за предыдущие месяцы, начиная с января 2011 года, Вы можете получить, выбрав интересующий диапазон дат из раскрывающегося списка и нажав кнопку "Ввод!".

Внимание! Время в таблицах - всемирное. Для получения местного времени необходимо прибавить поправку, которая в Adelaide равна 9.5 ч.

Смотрите также архив погоды в соседних городах и на ближайших метеорологических станциях:

Погода в Adelaide (Kent Town) (Южная Австралия, Австралия) (9 км)
Погода в Mount Lofty (Южная Австралия, Австралия) (16 км)
Погода в Parafield Airport (Южная Австралия, Австралия) (21 км)
Погода в Noarlunga (Южная Австралия, Австралия) (25 км)
Погода в Kuitpo Forest Reserve (Южная Австралия, Австралия) (28 км)
Погода в Edinburgh Raaf (Южная Австралия, Австралия) (29 км)
Погода в Mount Crawford Aws (Южная Австралия, Австралия) (44 км)
Погода в Roseworthy Ag College (Южная Австралия, Австралия) (50 км)
Погода в Strathalbyn Racecourse (Южная Австралия, Австралия) (50 км)
Погода в Pallamana Aerodrome (Южная Австралия, Австралия) (65 км)

Пояснения к столбцам:

Ветер - указаны скорость ветра в м/с - средняя за 10 мин, порывы в срок и между сроками (в фигурных скобках) и направление, откуда дует ветер: С - северный, СВ - северо-восточный, В - восточный, ЮВ - юго-восточный, Ю - южный, ЮЗ - юго-западный, З - западный, СЗ - северо-западный.
Видимость - горизонтальная дальность видимости в метрах или километрах. При видимости от 1 до 10 км при отсутствии осадков обычно наблюдается дымка, при ухудшении видимости до 1 км и менее - туман. В сухую погоду видимость может ухудшаться дымом, пылью или мглою.
Явления - указаны атмосферные явления, наблюдавшиеся в срок или в последний час перед сроком; фигурными скобками обозначены явления, наблюдавшиеся между сроками (за 1-3 часа до срока); квадратными скобками обозначены град или гололедные отложения с указанием их диаметра в мм.
Облачность - указаны через наклонную черту общая и нижняя облачность в баллах и высота нижней границы облаков в метрах; квадратными скобками обозначены формы облаков: Ci - перистые, Cs - перисто-слоистые, Cc - перисто-кучевые, Ac - высококучевые, As - высокослоистые, Sc - слоисто-кучевые, Ns - слоисто-дождевые, Cu - кучевые, Cb - кучево-дождевые. Подробнее классификацию облаков см. в Атласе облаков (PDF).
T - Температура воздуха - температура, измеренная на высоте 2 м над землей.
Td - Температура точки росы - температура, при понижении до которой содержащийся в воздухе водяной пар достигнет насыщения.
f - Относительная влажность воздуха - влажноcть воздуха, измеренная на высоте 2 м над землей.
Te - Эффективная температура - температура, которую ощущает одетый по сезону человек в тени. Характеристика душности погоды. При расчете учитывается влияние влажности воздуха и скорости ветра на теплоощущения человека.
Tes - Эффективная температура на солнце - температура, которую ощущает человек, с поправкой на солнечный нагрев. Характеристика знойности погоды. Зависит от высоты солнца над горизонтом, облачности и скорости ветра. Ночью, в пасмурную погоду, а также при ветре 12 м/с и более поправка равна нулю.
P - Атмосферное давление - приведенное к уровню моря атмосферное давление.
Po - Атмосферное давление - измеренное на уровне метеостанции атмосферное давление.
Tmin - Минимальная температура - минимум температуры воздуха на высоте 2 м над землей.
Tmax - Максимальная температура - максимум температуры воздуха на высоте 2 м над землей.
R - Количество осадков - Количество выпавших осадков за период времени, мм. При наведении курсора мыши на число - период времени, за который выпало указанное количество осадков.
R24 - Количество осадков - Количество выпавших осадков за 24 часа, мм.
S - Снежный покров - Высота снежного покрова, см. При наведении курсора мыши на число - состояние снежного покрова и степень покрытия местности в баллах.